Location: Poughquag
(41.6090°N, 73.6820°W)
Time: 07:38:47
(UTC-05:00)

Altair - Pass Details

Date: 07 December 2023
Orbit: 1501 x 1682 km, 47.2° (Epoch: 02 March)

Event Time Altitude Azimuth Distance (km) Brightness Sun altitude
Rises 13:23:44 0° 297° (WNW) 4,715 10.0 21.9°
Reaches altitude 10° 13:26:50 10° 295° (WNW) 3,710 9.6 21.7°
Maximum altitude 13:36:03 69° 214° (SW) 1,597 8.4 20.9°
Drops below altitude 10° 13:45:05 10° 134° (SE) 3,644 9.7 20.1°
Sets 13:48:07 0° 132° (SE) 4,627 10.2 19.8°
